| time (UTC) | temp F | wind direction | speed knots | gust knots | rain 1hr in | rain 24hr in | rain mn in | humidity % | barometer mb |
| 20260506143817 | 49 | 175 | 1.7 | 4.3 | 0.00 | 0.00 | 0.00 | 70 | 1012.8 |
| 20260506143322 | 48 | 175 | 0.9 | 4.3 | 0.00 | 0.00 | 0.00 | 72 | 1012.8 |
| 20260506142852 | 48 | 164 | 1.7 | 4.3 | 0.00 | 0.00 | 0.00 | 72 | 1012.8 |
| 20260506142334 | 48 | 168 | 1.7 | 4.3 | 0.00 | 0.00 | 0.00 | 73 | 1012.7 |
| 20260506141837 | 47 | 169 | 1.7 | 4.3 | 0.00 | 0.00 | 0.00 | 74 | 1012.6 |
| 20260506141322 | 47 | 178 | 0.9 | 2.6 | 0.00 | 0.00 | 0.00 | 75 | 1012.6 |
| 20260506140851 | 47 | 178 | 1.7 | 2.6 | 0.00 | 0.00 | 0.00 | 77 | 1012.4 |
| 20260506140337 | 46 | 173 | 1.7 | 3.5 | 0.00 | 0.00 | 0.00 | 78 | 1012.4 |
| 20260506135825 | 46 | 202 | 2.6 | 4.3 | 0.00 | 0.00 | 0.00 | 78 | 1012.5 |
| 20260506135337 | 46 | 185 | 1.7 | 4.3 | 0.00 | 0.00 | 0.00 | 78 | 1012.4 |
| 20260506134818 | 45 | 170 | 0.9 | 1.7 | 0.00 | 0.00 | 0.00 | 79 | 1012.3 |
| 20260506134321 | 45 | 252 | 0.9 | 0.9 | 0.00 | 0.00 | 0.00 | 80 | 1012.4 |
| 20260506133834 | 44 | 252 | 0.0 | 1.7 | 0.00 | 0.00 | 0.00 | 81 | 1012.4 |
| 20260506133321 | 44 | 252 | 0.9 | 1.7 | 0.00 | 0.00 | 0.00 | 83 | 1012.3 |
| 20260506132827 | 44 | 255 | 0.0 | 2.6 | 0.00 | 0.00 | 0.00 | 84 | 1012.2 |
| 20260506132319 | 43 | 240 | 0.9 | 1.7 | 0.00 | 0.00 | 0.00 | 86 | 1012.1 |
| 20260506131826 | 43 | 240 | 0.9 | 2.6 | 0.00 | 0.00 | 0.00 | 87 | 1012.0 |
| 20260506131332 | 43 | 240 | 0.9 | 2.6 | 0.00 | 0.00 | 0.00 | 88 | 1012.0 |
| 20260506130836 | 42 | 211 | 0.0 | 1.7 | 0.00 | 0.00 | 0.00 | 90 | 1012.0 |
| 20260506130319 | 42 | 213 | 0.0 | 2.6 | 0.00 | 0.00 | 0.00 | 90 | 1011.9 |
| 20260506125824 | 42 | 213 | 0.0 | 2.6 | 0.00 | 0.00 | 0.00 | 90 | 1011.8 |
| 20260506125335 | 41 | 97 | 0.0 | 0.9 | 0.00 | 0.00 | 0.00 | 90 | 1011.9 |
| 20260506124837 | 41 | 97 | 0.0 | 1.7 | 0.00 | 0.00 | 0.00 | 90 | 1011.9 |
| 20260506124321 | 41 | 97 | 0.0 | 2.6 | 0.00 | 0.00 | 0.00 | 90 | 1012.0 |
| 20260506123823 | 40 | 45 | 0.9 | 2.6 | 0.00 | 0.00 | 0.00 | 90 | 1012.1 |
| 20260506123328 | 40 | 49 | 0.9 | 2.6 | 0.00 | 0.00 | 0.00 | 90 | 1012.0 |
| 20260506122857 | 40 | 360 | 0.9 | 2.6 | 0.00 | 0.00 | 0.00 | 90 | 1012.0 |
| 20260506122321 | 39 | 332 | 0.0 | 1.7 | 0.00 | 0.00 | 0.00 | 89 | 1012.0 |
| 20260506121857 | 39 | 332 | 0.0 | 1.7 | 0.00 | 0.00 | 0.00 | 89 | 1011.9 |
| 20260506121327 | 39 | 332 | 0.0 | 0.0 | 0.00 | 0.00 | 0.00 | 89 | 1011.8 |
| 20260506120827 | 39 | 332 | 0.0 | 0.0 | 0.00 | 0.00 | 0.00 | 88 | 1011.9 |
| 20260506120331 | 39 | 332 | 0.0 | 0.0 | 0.00 | 0.00 | 0.00 | 88 | 1011.8 |
| 20260506115840 | 39 | 332 | 0.0 | 0.0 | 0.00 | 0.00 | 0.00 | 87 | 1011.8 |
| 20260506115349 | 38 | 332 | 0.0 | 0.0 | 0.00 | 0.00 | 0.00 | 86 | 1011.6 |
| 20260506114837 | 38 | 332 | 0.0 | 0.0 | 0.00 | 0.00 | 0.00 | 85 | 1011.6 |
| 20260506114336 | 38 | 332 | 0.0 | 0.0 | 0.00 | 0.00 | 0.00 | 85 | 1011.4 |
| 20260506113836 | 38 | 332 | 0.0 | 0.0 | 0.00 | 0.00 | 0.00 | 84 | 1011.3 |
| 20260506113330 | 38 | 332 | 0.0 | 0.0 | 0.00 | 0.00 | 0.00 | 84 | 1011.3 |
| 20260506112832 | 38 | 332 | 0.0 | 0.0 | 0.00 | 0.00 | 0.00 | 84 | 1011.2 |
| 20260506112322 | 38 | 332 | 0.0 | 0.0 | 0.00 | 0.00 | 0.00 | 83 | 1011.0 |
| 20260506111832 | 38 | 332 | 0.0 | 0.0 | 0.00 | 0.00 | 0.00 | 83 | 1010.9 |
| 20260506111321 | 38 | 332 | 0.0 | 0.0 | 0.00 | 0.00 | 0.00 | 83 | 1010.9 |
| 20260506110826 | 38 | 332 | 0.0 | 0.0 | 0.00 | 0.00 | 0.00 | 83 | 1010.7 |
| 20260506110317 | 38 | 332 | 0.0 | 0.0 | 0.00 | 0.00 | 0.00 | 83 | 1010.7 |
| 20260506105823 | 38 | 332 | 0.0 | 0.0 | 0.00 | 0.00 | 0.00 | 83 | 1010.4 |
| 20260506105332 | 38 | 332 | 0.0 | 0.0 | 0.00 | 0.00 | 0.00 | 83 | 1010.5 |
| 20260506104842 | 38 | 332 | 0.0 | 0.0 | 0.00 | 0.00 | 0.00 | 83 | 1010.5 |
| 20260506104331 | 39 | 332 | 0.0 | 0.0 | 0.00 | 0.00 | 0.00 | 83 | 1010.4 |
| 20260506103817 | 39 | 332 | 0.0 | 0.0 | 0.00 | 0.00 | 0.00 | 83 | 1010.4 |
| 20260506103331 | 39 | 332 | 0.0 | 0.0 | 0.00 | 0.00 | 0.00 | 82 | 1010.4 |
| 20260506102844 | 39 | 332 | 0.0 | 0.0 | 0.00 | 0.00 | 0.00 | 83 | 1010.6 |
| 20260506102346 | 39 | 332 | 0.0 | 0.0 | 0.00 | 0.00 | 0.00 | 82 | 1010.6 |
| 20260506101825 | 39 | 332 | 0.0 | 0.0 | 0.00 | 0.00 | 0.00 | 82 | 1010.4 |
| 20260506101333 | 39 | 332 | 0.0 | 0.0 | 0.00 | 0.00 | 0.00 | 82 | 1010.6 |
| 20260506100838 | 39 | 332 | 0.0 | 0.0 | 0.00 | 0.00 | 0.00 | 82 | 1010.7 |
| 20260506100330 | 39 | 332 | 0.0 | 0.0 | 0.00 | 0.00 | 0.00 | 82 | 1010.8 |
| 20260506095818 | 39 | 332 | 0.0 | 0.0 | 0.00 | 0.00 | 0.00 | 82 | 1010.8 |
| 20260506095321 | 39 | 332 | 0.0 | 0.0 | 0.00 | 0.00 | 0.00 | 82 | 1010.7 |
| 20260506094820 | 40 | 332 | 0.0 | 0.0 | 0.00 | 0.00 | 0.00 | 82 | 1010.7 |
| 20260506094327 | 40 | 332 | 0.0 | 0.0 | 0.00 | 0.00 | 0.00 | 82 | 1010.6 |
| 20260506093830 | 40 | 332 | 0.0 | 0.0 | 0.00 | 0.00 | 0.00 | 82 | 1010.5 |
| 20260506093331 | 40 | 332 | 0.0 | 0.0 | 0.00 | 0.00 | 0.00 | 82 | 1010.5 |
| 20260506092831 | 40 | 332 | 0.0 | 0.0 | 0.00 | 0.00 | 0.00 | 82 | 1010.5 |
| 20260506092321 | 40 | 332 | 0.0 | 0.0 | 0.00 | 0.00 | 0.00 | 82 | 1010.4 |
| 20260506091827 | 40 | 332 | 0.0 | 0.0 | 0.00 | 0.00 | 0.00 | 82 | 1010.4 |
| 20260506091328 | 40 | 332 | 0.0 | 0.0 | 0.00 | 0.00 | 0.00 | 82 | 1010.3 |
| 20260506090858 | 40 | 332 | 0.0 | 0.0 | 0.00 | 0.00 | 0.00 | 82 | 1010.2 |
| 20260506090340 | 41 | 332 | 0.0 | 0.0 | 0.00 | 0.00 | 0.00 | 82 | 1010.1 |
| 20260506085825 | 41 | 332 | 0.0 | 0.0 | 0.00 | 0.00 | 0.00 | 82 | 1010.0 |
| 20260506085358 | 41 | 332 | 0.0 | 0.0 | 0.00 | 0.00 | 0.00 | 82 | 1010.0 |
| 20260506084821 | 41 | 332 | 0.0 | 0.0 | 0.00 | 0.00 | 0.00 | 82 | 1010.0 |
| 20260506084325 | 41 | 332 | 0.0 | 0.0 | 0.00 | 0.00 | 0.00 | 82 | 1010.0 |
| 20260506083827 | 41 | 332 | 0.0 | 0.0 | 0.00 | 0.00 | 0.00 | 82 | 1009.9 |
| 20260506083332 | 41 | 332 | 0.0 | 0.0 | 0.00 | 0.00 | 0.00 | 82 | 1009.9 |
| 20260506082840 | 41 | 332 | 0.0 | 0.0 | 0.00 | 0.00 | 0.00 | 82 | 1010.0 |
| 20260506082344 | 42 | 332 | 0.0 | 0.0 | 0.00 | 0.00 | 0.00 | 81 | 1009.8 |
| 20260506081833 | 42 | 332 | 0.0 | 0.0 | 0.00 | 0.00 | 0.00 | 81 | 1009.9 |
| 20260506081329 | 42 | 332 | 0.0 | 0.0 | 0.00 | 0.00 | 0.00 | 81 | 1009.9 |
| 20260506080820 | 42 | 332 | 0.0 | 0.0 | 0.00 | 0.00 | 0.00 | 81 | 1009.8 |
| 20260506080322 | 42 | 332 | 0.0 | 0.0 | 0.00 | 0.00 | 0.00 | 81 | 1009.8 |
| 20260506073340 | 43 | 332 | 0.0 | 0.0 | 0.00 | 0.01 | 0.00 | 79 | 1009.8 |
| 20260506072839 | 43 | 332 | 0.0 | 0.0 | 0.00 | 0.01 | 0.00 | 79 | 1009.9 |
| 20260506072327 | 43 | 332 | 0.0 | 0.0 | 0.00 | 0.01 | 0.00 | 79 | 1009.9 |
| 20260506071833 | 43 | 332 | 0.0 | 0.0 | 0.00 | 0.01 | 0.00 | 79 | 1009.9 |
| 20260506071339 | 44 | 332 | 0.0 | 0.0 | 0.00 | 0.01 | 0.00 | 79 | 1009.9 |
| 20260506070845 | 44 | 332 | 0.0 | 0.0 | 0.00 | 0.01 | 0.00 | 79 | 1009.9 |
| 20260506070330 | 44 | 332 | 0.0 | 0.0 | 0.00 | 0.01 | 0.00 | 80 | 1010.0 |
| 20260506062336 | 44 | 332 | 0.0 | 0.0 | 0.00 | 0.01 | 0.00 | 82 | 1010.0 |
| 20260506061820 | 44 | 332 | 0.0 | 0.0 | 0.00 | 0.01 | 0.00 | 82 | 1010.0 |
| 20260506061323 | 44 | 332 | 0.0 | 0.0 | 0.00 | 0.01 | 0.00 | 82 | 1010.1 |
| 20260506060828 | 44 | 332 | 0.0 | 0.0 | 0.00 | 0.01 | 0.00 | 82 | 1010.1 |
| 20260506060323 | 44 | 332 | 0.0 | 0.0 | 0.00 | 0.01 | 0.00 | 82 | 1010.1 |
| 20260506051326 | 44 | 187 | 0.0 | 0.0 | 0.00 | 0.01 | 0.00 | 81 | 1010.2 |
| 20260506050829 | 44 | 187 | 0.0 | 0.0 | 0.00 | 0.01 | 0.00 | 81 | 1010.1 |
| 20260506050338 | 44 | 187 | 0.0 | 0.9 | 0.00 | 0.01 | 0.00 | 81 | 1010.3 |
| 20260506044847 | 44 | 187 | 0.0 | 0.9 | 0.00 | 0.01 | 0.00 | 80 | 1010.0 |
| 20260506044331 | 44 | 187 | 0.0 | 0.9 | 0.00 | 0.01 | 0.00 | 80 | 1010.1 |
| 20260506043833 | 44 | 187 | 0.0 | 0.0 | 0.00 | 0.01 | 0.00 | 79 | 1010.0 |
| 20260506043323 | 44 | 187 | 0.0 | 0.0 | 0.00 | 0.01 | 0.00 | 79 | 1010.1 |
| 20260506042826 | 44 | 187 | 0.0 | 0.0 | 0.00 | 0.01 | 0.00 | 78 | 1010.1 |
| 20260506042318 | 44 | 187 | 0.0 | 0.0 | 0.00 | 0.01 | 0.00 | 78 | 1009.7 |
| 20260506041848 | 44 | 187 | 0.0 | 0.0 | 0.00 | 0.01 | 0.00 | 78 | 1009.4 |
| 20260506041335 | 45 | 187 | 0.0 | 0.0 | 0.00 | 0.01 | 0.00 | 77 | 1009.3 |
| 20260506040817 | 45 | 187 | 0.0 | 0.0 | 0.00 | 0.01 | 0.00 | 76 | 1009.3 |
| 20260506040324 | 45 | 187 | 0.0 | 0.0 | 0.00 | 0.01 | 0.00 | 76 | 1009.4 |
| 20260506035824 | 45 | 187 | 0.0 | 0.0 | 0.00 | 0.03 | 0.01 | 75 | 1009.4 |
| 20260506035358 | 45 | 187 | 0.0 | 0.0 | 0.00 | 0.03 | 0.01 | 75 | 1009.5 |
| 20260506034827 | 45 | 187 | 0.0 | 0.0 | 0.00 | 0.03 | 0.01 | 74 | 1009.5 |
| 20260506034331 | 45 | 187 | 0.0 | 0.0 | 0.00 | 0.03 | 0.01 | 74 | 1009.3 |
| 20260506033818 | 45 | 187 | 0.0 | 0.0 | 0.00 | 0.03 | 0.01 | 74 | 1009.5 |
| 20260506033326 | 45 | 187 | 0.0 | 0.0 | 0.00 | 0.03 | 0.01 | 73 | 1009.5 |
| 20260506032825 | 45 | 187 | 0.0 | 0.0 | 0.00 | 0.03 | 0.01 | 73 | 1009.4 |
| 20260506032331 | 45 | 187 | 0.0 | 0.0 | 0.00 | 0.03 | 0.01 | 73 | 1009.2 |
| 20260506031816 | 45 | 187 | 0.0 | 0.0 | 0.00 | 0.03 | 0.01 | 73 | 1009.3 |
| 20260506031352 | 46 | 187 | 0.0 | 0.0 | 0.00 | 0.03 | 0.01 | 72 | 1009.1 |
| 20260506030834 | 46 | 187 | 0.0 | 0.0 | 0.00 | 0.03 | 0.01 | 72 | 1009.1 |
| 20260506030324 | 46 | 187 | 0.0 | 0.0 | 0.00 | 0.03 | 0.01 | 72 | 1009.3 |
| 20260506025827 | 46 | 187 | 0.0 | 0.0 | 0.00 | 0.04 | 0.01 | 72 | 1009.4 |
| 20260506025335 | 46 | 187 | 0.0 | 0.0 | 0.00 | 0.04 | 0.01 | 72 | 1009.4 |
| 20260506024838 | 46 | 187 | 0.0 | 0.0 | 0.00 | 0.04 | 0.01 | 72 | 1009.4 |
| 20260506024348 | 46 | 187 | 0.0 | 0.0 | 0.00 | 0.04 | 0.01 | 71 | 1009.4 |
| 20260506023833 | 46 | 187 | 0.0 | 0.0 | 0.00 | 0.04 | 0.01 | 71 | 1009.2 |
| 20260506023326 | 47 | 187 | 0.0 | 0.0 | 0.00 | 0.04 | 0.01 | 71 | 1009.1 |
| 20260506022832 | 47 | 187 | 0.0 | 0.0 | 0.00 | 0.04 | 0.01 | 70 | 1008.9 |
| 20260506022324 | 47 | 187 | 0.0 | 0.0 | 0.00 | 0.04 | 0.01 | 70 | 1008.9 |
| 20260506021829 | 47 | 187 | 0.0 | 0.0 | 0.00 | 0.04 | 0.01 | 70 | 1009.0 |
| 20260506021324 | 47 | 187 | 0.0 | 0.0 | 0.00 | 0.04 | 0.01 | 70 | 1009.0 |
| 20260506020831 | 47 | 187 | 0.0 | 0.0 | 0.00 | 0.04 | 0.01 | 69 | 1009.0 |
| 20260506020334 | 47 | 187 | 0.0 | 0.0 | 0.00 | 0.04 | 0.01 | 69 | 1008.8 |
| 20260506015835 | 47 | 187 | 0.0 | 0.0 | 0.00 | 0.19 | 0.01 | 69 | 1008.7 |
| 20260506015343 | 48 | 187 | 0.0 | 0.0 | 0.00 | 0.19 | 0.01 | 69 | 1008.5 |
| 20260506014823 | 48 | 187 | 0.0 | 0.0 | 0.00 | 0.19 | 0.01 | 69 | 1008.5 |
| 20260506014332 | 48 | 187 | 0.0 | 0.0 | 0.00 | 0.19 | 0.01 | 68 | 1008.4 |
| 20260506013835 | 48 | 187 | 0.0 | 0.0 | 0.00 | 0.19 | 0.01 | 68 | 1008.4 |
| 20260506013341 | 48 | 187 | 0.0 | 0.0 | 0.00 | 0.19 | 0.01 | 68 | 1008.3 |
| 20260506012825 | 49 | 187 | 0.0 | 0.0 | 0.00 | 0.19 | 0.01 | 68 | 1008.0 |
| 20260506012400 | 49 | 187 | 0.0 | 0.0 | 0.00 | 0.19 | 0.01 | 67 | 1008.0 |
| 20260506011821 | 49 | 187 | 0.0 | 0.0 | 0.00 | 0.19 | 0.01 | 67 | 1007.8 |
| 20260506011333 | 49 | 187 | 0.0 | 0.0 | 0.00 | 0.19 | 0.01 | 67 | 1007.8 |
| 20260506010821 | 49 | 187 | 0.0 | 0.0 | 0.00 | 0.19 | 0.01 | 68 | 1007.8 |
| 20260506010329 | 50 | 187 | 0.0 | 0.0 | 0.00 | 0.19 | 0.01 | 68 | 1007.7 |
| 20260506005836 | 50 | 187 | 0.0 | 0.0 | 0.00 | 0.19 | 0.01 | 68 | 1007.7 |
| 20260506005326 | 50 | 187 | 0.0 | 0.0 | 0.00 | 0.19 | 0.01 | 67 | 1007.8 |
| 20260506004838 | 50 | 187 | 0.0 | 0.0 | 0.00 | 0.19 | 0.01 | 66 | 1007.8 |
| 20260506004321 | 51 | 187 | 0.0 | 0.0 | 0.00 | 0.19 | 0.01 | 67 | 1007.8 |
| 20260506003854 | 51 | 187 | 0.0 | 0.0 | 0.00 | 0.19 | 0.01 | 66 | 1007.9 |
| 20260506003335 | 51 | 187 | 0.0 | 0.0 | 0.00 | 0.19 | 0.01 | 67 | 1007.9 |
| 20260506002841 | 51 | 187 | 0.0 | 0.0 | 0.00 | 0.19 | 0.01 | 65 | 1007.9 |
| 20260506002323 | 51 | 187 | 0.0 | 0.0 | 0.00 | 0.19 | 0.01 | 65 | 1007.8 |
| 20260506001824 | 52 | 187 | 0.0 | 0.0 | 0.00 | 0.19 | 0.01 | 65 | 1007.8 |
| 20260506001350 | 52 | 187 | 0.0 | 0.0 | 0.00 | 0.19 | 0.01 | 65 | 1007.7 |
| 20260506000826 | 52 | 187 | 0.0 | 0.0 | 0.00 | 0.19 | 0.01 | 64 | 1007.7 |
| 20260506000330 | 52 | 187 | 0.0 | 0.9 | 0.00 | 0.19 | 0.01 | 63 | 1007.8 |
| 20260505235832 | 52 | 187 | 0.0 | 0.9 | 0.00 | 0.19 | 0.01 | 63 | 1007.9 |
| 20260505235319 | 52 | 187 | 0.0 | 1.7 | 0.00 | 0.19 | 0.01 | 62 | 1008.0 |
| 20260505234827 | 52 | 187 | 0.0 | 1.7 | 0.00 | 0.19 | 0.01 | 62 | 1008.0 |
| 20260505234318 | 52 | 187 | 0.9 | 1.7 | 0.00 | 0.19 | 0.01 | 62 | 1007.9 |
| 20260505233834 | 52 | 187 | 0.0 | 1.7 | 0.00 | 0.19 | 0.01 | 61 | 1007.9 |
| 20260505233319 | 52 | 187 | 0.0 | 0.9 | 0.00 | 0.19 | 0.01 | 61 | 1007.9 |
| 20260505232824 | 52 | 187 | 0.0 | 0.9 | 0.00 | 0.19 | 0.01 | 61 | 1007.9 |
| 20260505232315 | 52 | 187 | 0.0 | 1.7 | 0.00 | 0.19 | 0.01 | 60 | 1007.9 |
| 20260505231820 | 52 | 187 | 0.0 | 1.7 | 0.00 | 0.19 | 0.01 | 61 | 1007.9 |
| 20260505231334 | 52 | 187 | 0.0 | 0.9 | 0.00 | 0.19 | 0.01 | 61 | 1008.0 |
| 20260505230826 | 52 | 187 | 0.0 | 2.6 | 0.00 | 0.19 | 0.01 | 61 | 1008.0 |
| 20260505230332 | 52 | 187 | 0.0 | 2.6 | 0.00 | 0.19 | 0.01 | 62 | 1008.0 |
| 20260505225833 | 52 | 187 | 0.9 | 1.7 | 0.00 | 0.19 | 0.01 | 61 | 1008.0 |
| 20260505225346 | 53 | 187 | 0.0 | 1.7 | 0.00 | 0.19 | 0.01 | 61 | 1008.1 |
| 20260505224842 | 53 | 187 | 0.9 | 1.7 | 0.00 | 0.19 | 0.01 | 61 | 1008.0 |
| 20260505224328 | 52 | 187 | 0.0 | 1.7 | 0.00 | 0.19 | 0.01 | 60 | 1008.1 |
| 20260505223832 | 53 | 187 | 0.0 | 1.7 | 0.00 | 0.19 | 0.01 | 60 | 1008.2 |
| 20260505223343 | 53 | 187 | 0.9 | 1.7 | 0.00 | 0.19 | 0.01 | 63 | 1008.2 |
| 20260505222831 | 52 | 187 | 0.0 | 1.7 | 0.00 | 0.19 | 0.01 | 64 | 1008.1 |
| 20260505222338 | 53 | 187 | 0.0 | 1.7 | 0.00 | 0.19 | 0.01 | 65 | 1008.1 |
| 20260505221840 | 53 | 187 | 0.9 | 1.7 | 0.00 | 0.19 | 0.01 | 63 | 1008.0 |
| 20260505221343 | 53 | 187 | 0.0 | 1.7 | 0.00 | 0.19 | 0.01 | 66 | 1008.0 |
| 20260505220831 | 53 | 187 | 0.0 | 1.7 | 0.00 | 0.19 | 0.01 | 65 | 1008.1 |
| 20260505220318 | 53 | 187 | 0.9 | 2.6 | 0.00 | 0.19 | 0.01 | 64 | 1008.1 |
| 20260505215818 | 53 | 187 | 0.9 | 2.6 | 0.00 | 0.19 | 0.01 | 64 | 1008.1 |
| 20260505215331 | 53 | 162 | 0.9 | 1.7 | 0.00 | 0.19 | 0.01 | 61 | 1008.1 |
| 20260505214814 | 53 | 161 | 0.0 | 1.7 | 0.00 | 0.19 | 0.01 | 62 | 1008.1 |
| 20260505214322 | 53 | 161 | 0.9 | 1.7 | 0.00 | 0.19 | 0.01 | 61 | 1008.1 |
| 20260505213831 | 53 | 161 | 0.9 | 1.7 | 0.00 | 0.19 | 0.01 | 60 | 1008.1 |
| 20260505213319 | 53 | 161 | 0.9 | 1.7 | 0.00 | 0.19 | 0.01 | 61 | 1008.1 |
| 20260505212825 | 53 | 140 | 0.9 | 2.6 | 0.00 | 0.19 | 0.01 | 59 | 1008.2 |
| 20260505212357 | 54 | 122 | 0.9 | 2.6 | 0.00 | 0.19 | 0.01 | 57 | 1008.2 |
| 20260505211821 | 54 | 122 | 0.0 | 2.6 | 0.00 | 0.19 | 0.01 | 57 | 1008.3 |
| 20260505211326 | 54 | 213 | 0.9 | 2.6 | 0.00 | 0.19 | 0.01 | 59 | 1008.1 |
| 20260505210830 | 54 | 213 | 0.9 | 2.6 | 0.00 | 0.19 | 0.01 | 59 | 1008.1 |
| 20260505210322 | 54 | 215 | 0.9 | 2.6 | 0.00 | 0.19 | 0.01 | 59 | 1008.1 |
| 20260505205828 | 54 | 206 | 0.9 | 2.6 | 0.00 | 0.19 | 0.01 | 59 | 1008.2 |
| 20260505205335 | 54 | 216 | 0.9 | 2.6 | 0.00 | 0.19 | 0.01 | 60 | 1008.4 |
| 20260505204820 | 54 | 188 | 0.9 | 2.6 | 0.00 | 0.19 | 0.01 | 58 | 1008.4 |
| 20260505204323 | 54 | 187 | 1.7 | 2.6 | 0.00 | 0.19 | 0.01 | 58 | 1008.4 |
| 20260505203826 | 54 | 116 | 0.9 | 2.6 | 0.00 | 0.19 | 0.01 | 59 | 1008.3 |
| 20260505203336 | 54 | 146 | 0.9 | 3.5 | 0.00 | 0.19 | 0.01 | 59 | 1008.4 |
| 20260505202839 | 54 | 228 | 1.7 | 3.5 | 0.00 | 0.19 | 0.01 | 61 | 1008.5 |
| 20260505202345 | 54 | 188 | 0.9 | 3.5 | 0.00 | 0.19 | 0.01 | 61 | 1008.5 |
| 20260505201847 | 54 | 202 | 0.9 | 3.5 | 0.00 | 0.19 | 0.01 | 60 | 1008.7 |
| 20260505201332 | 54 | 190 | 0.9 | 3.5 | 0.00 | 0.19 | 0.01 | 61 | 1008.7 |
| 20260505200836 | 54 | 161 | 0.9 | 3.5 | 0.00 | 0.19 | 0.01 | 63 | 1008.8 |
| 20260505200343 | 54 | 171 | 0.9 | 3.5 | 0.00 | 0.19 | 0.01 | 60 | 1008.7 |
| 20260505195822 | 55 | 171 | 0.9 | 3.5 | 0.00 | 0.19 | 0.01 | 63 | 1008.7 |
| 20260505195331 | 55 | 196 | 0.9 | 4.3 | 0.00 | 0.19 | 0.01 | 61 | 1008.8 |
| 20260505194836 | 55 | 221 | 1.7 | 4.3 | 0.00 | 0.19 | 0.01 | 61 | 1008.8 |
| 20260505194321 | 55 | 167 | 1.7 | 2.6 | 0.00 | 0.19 | 0.01 | 60 | 1008.8 |
| 20260505193854 | 55 | 172 | 0.9 | 3.5 | 0.00 | 0.19 | 0.01 | 59 | 1008.8 |
| 20260505193316 | 55 | 157 | 1.7 | 4.3 | 0.00 | 0.19 | 0.01 | 59 | 1008.7 |
| 20260505192821 | 55 | 223 | 0.9 | 3.5 | 0.00 | 0.19 | 0.01 | 58 | 1008.7 |
| 20260505192401 | 55 | 202 | 0.9 | 2.6 | 0.00 | 0.19 | 0.01 | 58 | 1008.7 |
| 20260505191834 | 55 | 207 | 1.7 | 2.6 | 0.00 | 0.19 | 0.01 | 60 | 1008.7 |
| 20260505191319 | 55 | 209 | 0.9 | 3.5 | 0.00 | 0.19 | 0.01 | 58 | 1008.7 |
| 20260505190821 | 55 | 212 | 1.7 | 3.5 | 0.00 | 0.19 | 0.01 | 59 | 1008.8 |
| 20260505190325 | 55 | 176 | 0.9 | 2.6 | 0.00 | 0.19 | 0.01 | 57 | 1008.6 |
| 20260505185835 | 55 | 176 | 0.9 | 3.5 | 0.00 | 0.19 | 0.01 | 57 | 1008.5 |
| 20260505185320 | 55 | 158 | 0.9 | 4.3 | 0.00 | 0.19 | 0.01 | 56 | 1008.4 |
| 20260505184825 | 55 | 157 | 1.7 | 4.3 | 0.00 | 0.19 | 0.01 | 58 | 1008.4 |
| 20260505184331 | 55 | 169 | 1.7 | 4.3 | 0.00 | 0.19 | 0.01 | 54 | 1008.3 |
| 20260505183817 | 55 | 194 | 1.7 | 4.3 | 0.00 | 0.19 | 0.01 | 55 | 1008.3 |
| 20260505183350 | 55 | 135 | 1.7 | 4.3 | 0.00 | 0.19 | 0.01 | 56 | 1008.3 |
| 20260505182816 | 55 | 178 | 0.9 | 2.6 | 0.00 | 0.19 | 0.01 | 56 | 1008.3 |
| 20260505182354 | 55 | 169 | 1.7 | 2.6 | 0.00 | 0.19 | 0.01 | 57 | 1008.4 |
| 20260505181832 | 55 | 171 | 1.7 | 3.5 | 0.00 | 0.19 | 0.01 | 58 | 1008.4 |
| 20260505181343 | 55 | 165 | 0.9 | 3.5 | 0.00 | 0.19 | 0.01 | 58 | 1008.4 |
| 20260505180825 | 55 | 13 | 0.9 | 2.6 | 0.00 | 0.19 | 0.01 | 56 | 1008.2 |
| 20260505180334 | 55 | 13 | 0.9 | 3.5 | 0.00 | 0.19 | 0.01 | 57 | 1008.1 |
| 20260505175817 | 55 | 18 | 1.7 | 3.5 | 0.00 | 0.19 | 0.01 | 57 | 1008.0 |
| 20260505175329 | 55 | 157 | 1.7 | 4.3 | 0.00 | 0.19 | 0.01 | 61 | 1008.1 |
| 20260505174835 | 55 | 167 | 0.9 | 4.3 | 0.00 | 0.19 | 0.01 | 59 | 1008.4 |
| 20260505174320 | 55 | 233 | 1.7 | 3.5 | 0.00 | 0.19 | 0.01 | 62 | 1008.4 |
| 20260505173822 | 55 | 212 | 0.9 | 4.3 | 0.00 | 0.19 | 0.01 | 61 | 1008.3 |
| 20260505173325 | 55 | 169 | 2.6 | 4.3 | 0.00 | 0.19 | 0.01 | 62 | 1008.1 |
| 20260505172834 | 55 | 171 | 0.9 | 3.5 | 0.00 | 0.19 | 0.01 | 64 | 1008.1 |
| 20260505172324 | 54 | 200 | 1.7 | 5.2 | 0.00 | 0.19 | 0.01 | 64 | 1008.0 |
| 20260505171823 | 54 | 229 | 1.7 | 5.2 | 0.00 | 0.19 | 0.01 | 64 | 1008.1 |
| 20260505171327 | 54 | 193 | 0.9 | 3.5 | 0.00 | 0.19 | 0.01 | 64 | 1008.0 |
| 20260505170834 | 54 | 190 | 0.9 | 5.2 | 0.00 | 0.19 | 0.01 | 64 | 1007.9 |
| 20260505170324 | 54 | 181 | 1.7 | 5.2 | 0.00 | 0.19 | 0.01 | 62 | 1007.8 |
| 20260505165857 | 54 | 277 | 0.9 | 3.5 | 0.00 | 0.19 | 0.01 | 62 | 1007.7 |
| 20260505165338 | 54 | 13 | 1.7 | 3.5 | 0.00 | 0.19 | 0.01 | 62 | 1007.5 |
| 20260505164850 | 54 | 225 | 0.9 | 4.3 | 0.00 | 0.19 | 0.01 | 64 | 1007.6 |
| 20260505164336 | 53 | 182 | 1.7 | 7.0 | 0.00 | 0.19 | 0.01 | 65 | 1007.5 |
| 20260505163817 | 53 | 224 | 1.7 | 7.0 | 0.00 | 0.19 | 0.01 | 64 | 1007.5 |
| 20260505163324 | 53 | 202 | 1.7 | 3.5 | 0.00 | 0.19 | 0.01 | 65 | 1007.5 |
| 20260505162829 | 53 | 239 | 1.7 | 2.6 | 0.00 | 0.19 | 0.01 | 66 | 1007.5 |
| 20260505162400 | 53 | 239 | 1.7 | 2.6 | 0.00 | 0.19 | 0.01 | 66 | 1007.5 |
| 20260505161846 | 53 | 169 | 0.9 | 2.6 | 0.00 | 0.19 | 0.01 | 67 | 1007.5 |
| 20260505161328 | 53 | 213 | 0.9 | 2.6 | 0.00 | 0.19 | 0.01 | 66 | 1007.7 |
| 20260505160832 | 52 | 212 | 0.9 | 2.6 | 0.00 | 0.19 | 0.01 | 65 | 1007.6 |
| 20260505160327 | 52 | 184 | 0.9 | 3.5 | 0.00 | 0.19 | 0.01 | 66 | 1007.7 |
| 20260505153322 | 50 | 51 | 0.9 | 4.3 | 0.00 | 0.19 | 0.01 | 68 | 1007.8 |
| 20260505152826 | 50 | 317 | 1.7 | 3.5 | 0.00 | 0.19 | 0.01 | 72 | 1007.8 |
| 20260505152329 | 49 | 202 | 0.9 | 3.5 | 0.00 | 0.19 | 0.01 | 71 | 1007.8 |
| 20260505151818 | 49 | 175 | 1.7 | 3.5 | 0.00 | 0.19 | 0.01 | 72 | 1007.7 |
| 20260505151323 | 49 | 327 | 0.9 | 3.5 | 0.00 | 0.19 | 0.01 | 73 | 1007.6 |
| 20260505150831 | 49 | 152 | 0.0 | 1.7 | 0.00 | 0.19 | 0.01 | 75 | 1007.8 |
| 20260505150321 | 49 | 152 | 0.9 | 1.7 | 0.00 | 0.19 | 0.01 | 76 | 1007.7 |